Regional Weather Roundup
Issued by NWS Pendleton, OR

Home | Current Version | Previous Version | Text Only | Print | Product List | Glossary On
Versions: 1 2 3 4 5 6 7 8 9 10 11 12 13 14 15 16 17 18 19 20 21 22 23 24 25 26 27 28 29 30 31 32 33 34 35 36 37 38 39 40 41 42 43 44 45 46 47 48 49 50
000
ASUS46 KPDT 211825
RWRPDT
PENDLETON REGIONAL WEATHER ROUNDUP
NATIONAL WEATHER SERVICE PENDLETON OREGON
1100 AM PDT SUN SEP 21 2014

NOTE: FAIR INDICATES FEW OR NO CLOUDS BELOW 12,000 FEET WITH NO
SIGNIFICANT WEATHER AND/OR OBSTRUCTIONS TO VISIBILITY.

# INDICATES UNOFFICIAL STATION AND DATA

WAZ520-211910-
EAST SLOPES OF WASHINGTON CASCADES

CITY            SKY/WX      TMP DP  RH  WIND    PRES   REMARKS
#BUMPING DAM    N/A         55  N/A N/A N6      N/A
#CLE ELUM HS    N/A         71  47  42  CALM    29.95F
#CLE ELUM 2NW   N/A         71  44  38  E2      N/A
#CLE ELUM LAKE  N/A         71  50  47  CALM    29.87F
#CLIFFDEL 2NW   N/A         60  46  60  CALM    N/A
#GLENWOOD       N/A         69  55  61  CALM    29.90F
#MANASTASH CYN  N/A         72  46  39  CALM    29.99F
#NELSON         N/A         66  53  63  CALM    29.93F
#NELSON 3SW     N/A         68  47  47  CALM    30.10F
#NILE           N/A         69  48  47  SW3     29.21F
#RONALD 2NW     N/A         67  50  54  SW1     29.89F
#SNOWDEN        N/A         79  36  21  SE3     N/A
#TEANAWAY 4NE   N/A         71  51  49  CALM    N/A
#TROUT LAKE 1NE N/A         73  52  48  CALM    29.90F
$$

WAZ521-211910-
SIMCOE HIGHLANDS

CITY            SKY/WX      TMP DP  RH  WIND    PRES   REMARKS
#BICKLETON HS   N/A         76  37  24  E7      30.09R
#CENTERVILLE 4W N/A         75  51  43  SE2     29.73S
#CENTERVILLE 1SWN/A         75  50  41  CALM    29.88S
#GOLDENDALE     N/A         72  48  43  SW2     N/A
#GOLDENDALE 1NE N/A         75  41  29  S3      N/A
#GOLDENDALE 1S  N/A         77  50  39  SW3     29.94S
#GOLDENDALE 5WNWN/A         78  50  38  S3      29.88S
#GOODNOE HILLS  N/A         81  49  33  W6      29.90S
#LYLE 6NE       N/A         73  49  43  CALM    29.86S
$$

WAZ026-211910-
KITTITAS VALLEY

CITY            SKY/WX      TMP DP  RH  WIND    PRES   REMARKS
ELLENSBURG AP   SUNNY       73  50  44  VRB3    29.99F
6HR MIN TEMP:   48; 6HR MAX TEMP:   73;

#ELLENSBURG CWU N/A         71  50  47  CALM    29.89F
#ELLENSBURG 3NE N/A         70  53  55  CALM    29.98F
#ELLENSBURG     N/A         75  52  45  S1      N/A
#KITTITAS 3S    N/A         65  54  68  CALM    29.92F
#THORP 6N       N/A         72  44  37  S1      29.92F
$$

WAZ027-211910-
YAKIMA VALLEY

CITY            SKY/WX      TMP DP  RH  WIND    PRES   REMARKS
SUNNYSIDE AP    CLOUDY      70  52  53  CALM    29.94F
YAKIMA AIRPORT  SUNNY       77  49  37  CALM    29.95F
6HR MIN TEMP:   50; 6HR MAX TEMP:   78;

YAKIMA-VAGABOND SUNNY       76  44  32  W5      29.96F
#COWICHE 1N     N/A         73  50  44  N2      30.13F
#DONALD 2NE     N/A         87  45  23  N1      30.27S
#GRANDVIEW      N/A         75  52  45  CALM    29.93S
#MOXEE 2E       N/A         76  26  16  CALM    29.86F
#NACHES 2SW     N/A         77  52  42  CALM    29.99F
#OUTLOOK DOT    N/A         N/A N/A N/A W2      N/A
#SELAH 8E       N/A         81  41  24  NE6     N/A
#TERRACE HTS    N/A         74  51  44  CALM    29.87F
#TOPPENISH      N/A         76  50  40  CALM    29.83S
#WAPATO 4NE     N/A         87  45  23  N1      30.27S
#WEST VALLEY    N/A         75  48  38  CALM    29.89F
#W YAKIMA       N/A         78  50  38  NW2     29.89F
#WHITE SWAN 5E  N/A         81  52  37  CALM    29.91F
#WILEY CITY 3W  N/A         79  50  36  CALM    29.95F
$$

WAZ028-211910-
LOWER COLUMBIA BASIN...WASHINGTON

CITY            SKY/WX      TMP DP  RH  WIND    PRES   REMARKS
HANFORD         MOSUNNY     79  41  26  NW5     29.93S
PASCO           SUNNY       71  50  47  N5      29.95F
6HR MIN TEMP:   51; 6HR MAX TEMP:   71;

PROSSER AWOS    N/A         75  50  41  N2      29.97S
RICHLAND AWOS   SUNNY       73  45  37  CALM    29.95S
#BASIN CITY 5SW N/A         76  54  46  E1      29.94F
#BENTON CITY    N/A         72  50  46  CALM    29.83S
#CONNELL 5N     N/A         76  46  34  CALM    29.91S
#CONNELL 5NW    N/A         74  48  40  CALM    29.87F
#ELTOPIA        N/A         74  51  44  N2      29.88F
#ELTOPIA 6NW    N/A         72  49  44  N6      28.92F
#KENNEWICK 3S   N/A         72  49  44  CALM    29.93S
#PASCO-BROADMOORN/A         78  51  39  W1      29.82F
#PATERSON       N/A         72  53  51  E2      29.91S
#PROSSER        N/A         74  47  38  CALM    29.91S
#SAGEMOOR 2W    N/A         69  51  53  SW2     29.78S
#TOUCHET 2S     N/A         71  52  51  CALM    29.91F
#WEST PASCO     N/A         72  51  48  CALM    29.94S
$$

WAZ029-211910-
FOOTHILLS OF THE BLUES...WASHINGTON

CITY            SKY/WX      TMP DP  RH  WIND    PRES   REMARKS
WALLA WALLA AP  SUNNY       75  45  34  SW6     29.96F
6HR MIN TEMP:   56; 6HR MAX TEMP:   75;

#DAYTON SCHOOL  N/A         77  43  30  S1      29.95F
#LOWDEN 2SE     N/A         71  52  51  W3      29.90F
#PLEASANT VIEW 1N/A         77  44  31  SE2     29.92F
#PRESCOTT       N/A         77  49  37  CALM    29.90F
#SUDBURY        N/A         75  N/A N/A W6      N/A
#WHITMAN COLLEGEN/A         72  47  41  W7      29.95F
#WAITSBURG 8N   N/A         79  35  20  S6      29.88F
#WALLA WALLA 5E N/A         77  50  39  W7      N/A
#WALLA WALLA U  N/A         73  49  43  CALM    29.91S
#WHITMAN MISSIONN/A         71  50  47  W2      29.93S
$$

WAZ030-211910-
BLUE MOUNTAINS...WASHINGTON

CITY            SKY/WX      TMP DP  RH  WIND    PRES   REMARKS
$$

ORZ009-041-WAZ024-211910-
COLUMBIA RIVER GORGE

CITY            SKY/WX      TMP DP  RH  WIND    PRES   REMARKS
HOOD RIVER AP   SUNNY       73  50  44  CALM    29.93F
THE DALLES AP   SUNNY       75  48  38  CALM    29.93S
6HR MIN TEMP:   53; 6HR MAX TEMP:   75;

#ARLINGTON AIRPON/A         76  49  39  NE3     29.95S
#ARLINGTON HS   N/A         74  49  41  W7      29.83S
#MARYHILL 2W    N/A         76  54  46  CALM    N/A
#MOSIER 1S      N/A         75  41  29  CALM    29.94S
#MURDOCK        N/A         73  54  51  SW3     29.93F
#RUFUS DOT      N/A         72  52  49  NW2     N/A

$$

ORZ510-211910-
NORTH CENTRAL OREGON

CITY            SKY/WX      TMP DP  RH  WIND    PRES   REMARKS
#CHENOWITH 1W   N/A         75  45  34  E6      N/A
#COW CYN RST AREN/A         72  45  38  CALM    N/A
#DUFUR 9E       N/A         74  45  35  E10     29.92S
#GRASS VALLEY   N/A         77  43  30  E5      N/A
#GRASS VALLEY 1SN/A         79  49  35  E1      29.91S
#KENT DOT       N/A         76  44  32  E6      N/A
#MAUPIN SCHOOL  N/A         71  50  47  CALM    28.84S
#MORO SCHOOL    N/A         77  53  43  E3      29.98S
#SHANIKO 5WSW   N/A         73  45  37  S1      N/A
#SHANIKO 4NW    N/A         76  43  31  E3      30.05S
#TYGH VALLEY 2NEN/A         71  51  49  SE1     29.91F
#WAPANITIA AIRPON/A         75  48  38  CALM    29.92S
#WASCO DOT      N/A         82  52  35  NW2     N/A
#WASCO 5NE      N/A         79  50  36  CALM    29.91S
$$

ORZ511-211910-
CENTRAL OREGON

CITY            SKY/WX      TMP DP  RH  WIND    PRES   REMARKS
BEND AIRPORT    PTCLDY      73  46  38  S3      30.04F
MADRAS AIRPORT  PTCLDY      72  46  39  S5      30.02F
REDMOND AIRPORT PTCLDY      73  44  35  CALM    30.02F
6HR MIN TEMP:   44; 6HR MAX TEMP:   74;

#BEND 6E        N/A         73  45  37  CALM    29.81F
#BEND 1SW       N/A         68  48  49  S1      N/A
#BEND-AWBREY    N/A         71  51  49  SE1     29.88F
#BEND-KIM LN    N/A         72  52  49  CALM    30.02F
#CROOKED RVR RANN/A         74  50  43  E5      29.89F
#CULVER         N/A         72  49  44  W1      29.97F
#LAKE BILLY CHINN/A         72   7   8  CALM    30.02F
#POWELL BUTTE 3EN/A         68  47  47  NE2     N/A
#POWELL BUTTE   N/A         73  52  48  N2      29.67F
#PRINEVILLE 3N  N/A         69  53  57  CALM    29.85F
#WARM SPRINGS   N/A         72  50  46  CALM    29.96F


ORZ509-211910-
EAST SLOPES OF OREGON CASCADES

CITY            SKY/WX      TMP DP  RH  WIND    PRES   REMARKS
#BLUE BOX PASS  N/A         72  15  11  SE1     N/A
#CAMP SHERMAN   N/A         75  48  38  CALM    29.93F
#LA PINE DOT    N/A         68  41  37  CALM    N/A
#LA PINE 4NW    N/A         62  47  58  CALM    29.94F
#LAVA BUTTE DOT N/A         72  45  38  W1      N/A
#SISTERS AIRPOR N/A         72  55  55  CALM    29.91S
#SISTERS ODOT   N/A         71  N/A N/A CALM    N/A
#SISTERS 3N     N/A         72  50  46  CALM    N/A
#SUNRIVER       N/A         65  49  56  S3      29.79F
#SUNRIVER AP    N/A         60  48  64  SW3     29.87F
#SUTTLE LK DOT  N/A         66  50  56  E9      N/A
#TUMALO 3W      N/A         70  47  44  CALM    29.77F
#WANOGA BUTTE D N/A         66  43  43  W3      N/A

$$

ORZ044-211910-
LOWER COLUMBIA BASIN...OREGON

CITY            SKY/WX      TMP DP  RH  WIND    PRES   REMARKS
HERMISTON       SUNNY       76  48  37  CALM    29.94S
6HR MIN TEMP:   50; 6HR MAX TEMP:   77;

#BOARDMAN SCHOOLN/A         69  55  61  CALM    29.91F
#BOARDMAN 3W    N/A         73  58  59  NE3     29.62F
#BOARDMAN 8SW   N/A         76  52  43  N1      29.91F
#ECHO 8SW       N/A         77  48  36  N3      29.91F
#IONE SCHOOL    N/A         77  47  35  CALM    29.94F
#IRRIGON 4NW    N/A         73  54  51  NE2     N/A
#UMATILLA SCHOOLN/A         75  57  54  E3      29.96
#UMATILLA       N/A         79  48  34  CALM    29.91F
$$

ORZ507-211910-
NORTHERN FOOTHILLS OF THE BLUES

CITY            SKY/WX      TMP DP  RH  WIND    PRES   REMARKS
PENDLETON AIRPT SUNNY       79  43  28  NW5     29.96F
6HR MIN TEMP:   52; 6HR MAX TEMP:   79;

#ADAMS 3WNW     N/A         78  47  34  CALM    29.91F
#ATHENA         N/A         78  48  35  CALM    29.93F
#HELIX SCHOOL   N/A         75  45  34  NW6     29.90F
#HELIX 3N       N/A         77  43  30  N7      29.94F
#HELIX 6SW      N/A         77  46  33  NW2     29.96
#HOLDMAN 5SE    N/A         77  46  33  CALM    29.96F
#HOLDMAN 6E     N/A         76  44  32  SE3     29.72F
#M-F GROVE ELEM N/A         72  48  43  NW1     29.94S
#M-FREEWATER 5SEN/A         76  54  46  NE1     29.95S
#PENDLETON DNTN N/A         78  49  36  CALM    29.96S
#PDT AQUATIC CTRN/A         74  51  44  CALM    29.94F
#PENDLETON 5NE  N/A         79  48  34  CALM    29.92F
#PDT SUNRIDGE   N/A         77  49  37  CALM    29.96F
#PENDLETON 7NW  N/A         77  53  43  CALM    30.63S
#PILOT ROCK     N/A         76  46  34  CALM    29.99S
#TUTUILLA       N/A         76  49  39  CALM    29.94F
#UMAPINE 2E     N/A         73  53  49  CALM    29.91F
#WESTON SCHOOL  N/A         76  42  30  CALM    29.93F

$$

ORZ508-211910-
SOUTHERN FOOTHILLS OF THE BLUES

CITY            SKY/WX      TMP DP  RH  WIND    PRES   REMARKS
LEXINGTON       SUNNY       81  45  28  N7      29.98S
#AJAX           N/A         76  41  28  NE6     29.93S
#CONDON SCHOOL  N/A         76  47  36  CALM    29.97F
#CONDON 5W      N/A         72  41  33  E3      30.01S
#FOSSIL SCHOOL  N/A         73  49  43  NW1     29.98F
#HEPPNER EOC    N/A         76  46  34  W1      29.85S
#HEPPNER 4NE    N/A         74  45  35  CALM    29.90S
#LEXINGTON 2SE  N/A         80  48  33  N5      29.91F
#MIKKALO        N/A         81  44  27  E7      29.97F
#OLEX 4N        N/A         76  48  37  E3      29.94F
#RUGGS 5NE      N/A         79  48  34  NE3     30.17S
#RUGGS 2SW      N/A         74  47  38  NE5     29.91S

$$

ORZ502-503-211910-
BLUE MOUNTAINS

CITY            SKY/WX      TMP DP  RH  WIND    PRES   REMARKS
MEACHAM         SUNNY       80  42  26  CALM    30.05S
6HR MIN TEMP:   38; 6HR MAX TEMP:   80;

#BATTLE MTN DOT N/A         75  53  46  S1      N/A
#HARDMAN 10S    N/A         74  43  33  CALM    30.12S
#HEPPNER 15SE   N/A         74  47  38  NW1     29.98S
#LADD CYN SMT   N/A         75  40  28  SE10    N/A
#LADD CREEK ODOTN/A         66  49  54  NE6     N/A
#N POWDER DOT   N/A         72  46  39  CALM    N/A
#PIKES PEAK     N/A         70  46  42  SW2     27.99S
#TOLLGATE       N/A         75  41  29  SW2     30.05R
#TOLLGATE 9W    N/A         76  41  28  E3      N/A
#TROY SCHOOL    N/A         75  48  38  CALM    29.76F
#UKIAH          N/A         68  44  42  CALM    29.99F
#WESTON 4E      N/A         73  46  38  S2      29.83S
$$

ORZ505-211910-
JOHN DAY BASIN

CITY            SKY/WX      TMP DP  RH  WIND    PRES   REMARKS
JOHN DAY        PTCLDY      79  40  25  NE6     30.04F
#JOHN DAY KJDY  N/A         74  45  35  CALM    30.06F
#MONUMENT HS    N/A         73  43  34  CALM    30.00F
#MT. VERNON 5SE N/A         74  43  33  N3      30.02F
#WINLOCK        N/A         80  47  31  NW1     30.11F
$$

ORZ506-211910-
OCHOCO AND JOHN DAY HIGHLANDS

CITY            SKY/WX      TMP DP  RH  WIND    PRES   REMARKS
#BUCK CREEK DOT N/A         78  48  35  E7      N/A
#HORSE RIDGE DO N/A         73  41  31  S1      N/A
#KEYES SMT DOT  N/A         76  40  27  E3      N/A
#PAULINA SCHOOL N/A         73  43  34  CALM    30.05F
#PINE MTN OBS   N/A         69  39  33  S6      N/A
#PRAIRIE CITY   N/A         71  46  41  W1      29.90F
#SENECA 9NW     N/A         70  43  38  CALM    29.93F
$$

ORZ049-211910-
GRANDE RONDE VALLEY

CITY            SKY/WX      TMP DP  RH  WIND    PRES   REMARKS
LA GRANDE       SUNNY       70  41  35  CALM    30.03F
#COVE           N/A         67  50  54  CALM    29.96F
#COVE SCHOOL    N/A         68  48  49  CALM    30.02F
#COVE 6NW       N/A         65  47  52  CALM    30.00F
#ELGIN 3N       N/A         74  42  32  S7      29.75F
#ELGIN 1E       N/A         72  46  39  CALM    N/A
#IMBLER SCHOOL  N/A         66  48  52  S2      30.00F
#LADD CYN DOT   N/A         70  48  46  W1      N/A
#LA GRANDE ELEM N/A         71  47  42  W1      30.01F
#UNION 1S       N/A         67  50  54  CALM    29.86F
$$

ORZ050-211910-
WALLOWA COUNTY

CITY            SKY/WX      TMP DP  RH  WIND    PRES   REMARKS
JOSEPH AIRPORT  SUNNY       77  39  25  CALM    30.09F
#ENTERPRISE AP  N/A         70  42  36  SW1     30.01F
#ENTERPRISE HS  N/A         73  46  38  CALM    30.06F
#IMNAHA SCHOOL  N/A         76  40  27  CALM    29.87F
#IMNAHA 10S     N/A         76  46  34  NE2     30.01F
#JOSEPH 3N      N/A         73  49  43  NW2     30.09S
#JOSEPH 3W      N/A         76  42  30  NE3     29.95S
#LOSTINE        N/A         70  48  46  CALM    29.74F
#MT HOWARD 8000 N/A         65  31  28  W1      30.35S
#PROMISE 1S     N/A         75  47  37  CALM    30.00F
#SHEEP RDG 7000 N/A         65  37  35  CALM    29.87F
#WALLOWA SCHOOL N/A         66  46  48  CALM    30.86F



$$



USA.gov is the U.S. government's official web portal to all federal, state and local government web resources and services.